#timestamp,LO_Frequency,Hit,StdDev 
1539507615.4,286047000.6,N
1539507635.2,286047002.8,N
1539507655.1,286047000.1,N
1539507656.0,286047000.1,N
1539507675.8,286047000.2,N
1539507695.7,286047000.6,N
1539507715.5,286047000.9,N
1539507735.3,286046998.1,N
1539507755.2,286046998.9,N
1539507775.0,286046998.2,N
1539507775.9,286046998.2,N
1539507795.7,286046998.3,N
1539507815.6,286047000.8,N
1539507835.4,286046998.5,N
1539507855.3,286046998.3,N
1539507875.1,286046998.1,N
1539507876.0,286046998.1,N
1539507895.8,286046998.2,N
1539507915.7,286046998.7,N
1539507935.5,286046998.6,N
1539507955.3,286046998.9,N
1539507975.2,286046996.5,N
1539507995.0,286047000.1,N
1539507995.9,286047000.1,N
1539508015.8,286047012.3,Y
1539508035.6,286047023.0,P
1539508055.4,286047020.9,N
1539508075.3,286047019.1,N
1539508095.1,286047017.8,N
1539508115.9,286047017.1,N
1539508135.7,286047013.4,N
1539508155.5,286047011.7,N
1539508175.8,286047009.3,N
1539508195.6,286047010.3,N
1539508215.4,286047007.7,N
1539508235.3,286047006.2,N
1539508255.1,286047007.0,N
1539508275.8,286047006.4,N
1539508295.7,286047004.6,N
1539508315.5,286047004.6,N
1539508335.4,286047007.6,N
1539508355.2,286047005.9,N
1539508375.0,286047002.9,N
1539508375.9,286047002.9,N
1539508395.8,286047003.1,N
1539508415.6,286047002.9,N
1539508435.5,286047005.9,N
1539508455.3,286047003.3,N
1539508475.1,286047003.1,N
1539508495.9,286047006.0,N
1539508515.7,286047003.1,N
1539508535.5,286047003.6,N
1539508555.4,286047003.3,N
1539508575.2,286047004.1,N
1539508595.1,286047003.1,N
1539508596.0,286047003.1,N
1539508615.8,286047004.1,N
1539508635.6,286047001.8,N
1539508655.5,286047001.5,N
1539508675.3,286047001.9,N
1539508695.1,286047002.4,N
1539508715.9,286047002.4,N
1539508735.7,286047001.5,N
1539508755.6,286047000.1,N
1539508775.4,286047002.8,N
1539508795.2,286047002.4,N
1539508845.1,286046999.9,E
1539508855.0,286047000.2,N
1539508855.9,286047000.2,P
1539508875.8,286046999.7,P
1539508895.6,286047000.1,N
1539508915.4,286047002.8,Y
1539508935.3,286047002.8,P
1539508955.1,286047001.5,N
1539508975.8,286047002.3,N
1539508995.7,286047002.3,N
1539509015.5,286047002.4,N
1539509035.4,286047000.3,N
1539509055.2,286047002.6,N
1539509075.0,286047002.6,N
1539509075.9,286047002.6,N
1539509095.8,286047002.6,N
1539509115.6,286047001.8,N
1539509135.4,286047001.3,N
1539509155.3,286047004.0,Y
1539509175.1,286047000.5,P
1539509195.9,286047000.5,N
1539509215.7,286046998.2,N
1539509235.5,286046998.2,N
1539509255.4,286046998.3,N
1539509275.2,286046997.4,N
1539509295.0,286046997.0,N
1539509296.0,286046997.0,N
1539509315.8,286046999.5,N
1539509335.6,286046999.3,N
1539509355.5,286046999.3,N
1539509375.3,286047001.2,N
1539509395.1,286046997.0,N
1539509415.9,286046996.6,N
1539509435.7,286046997.0,N
1539509455.5,286046998.4,N
1539509475.4,286046998.3,N
1539509495.2,286047002.8,N
1539509515.1,286046998.3,N
1539509516.0,286046998.3,N
1539509535.8,286046998.9,N
1539509555.6,286046998.4,N
1539509575.5,286046998.1,N
1539509595.3,286046998.2,N
1539509615.1,286047000.9,N
1539509635.9,286047000.3,N
1539509655.7,286047001.2,N
1539509675.6,286047000.4,N
1539509695.4,286047001.2,N
1539509715.2,286047000.8,N
1539509735.1,286047000.0,N
1539509736.0,286047000.0,N
1539509755.8,286046998.3,N
1539509775.6,286046996.5,N
1539509795.5,286046998.1,N
1539509815.3,286046999.4,N
1539509835.2,286046996.9,N
1539509855.9,286046999.0,N
1539509875.7,286046999.2,N
1539509895.6,286046999.2,N
1539509915.4,286046998.5,N
1539509935.2,286047000.7,N
1539509955.1,286047000.5,N
1539509956.0,286047000.5,N
1539509975.8,286047002.7,N
1539509995.7,286047000.6,N
1539510015.5,286047001.0,N
1539510035.3,286046998.2,N
1539510055.2,286046998.3,N
1539510075.0,286047001.0,N
1539510075.9,286047001.0,N
1539510095.7,286047000.0,N
1539510115.6,286046999.7,N
1539510135.4,286047000.6,N
1539510155.3,286046998.6,N
1539510175.4,286046998.5,N
1539510195.3,286047001.2,N
1539510215.1,286046998.8,N
1539510216.0,286046998.8,N
1539510235.8,286046998.8,N
1539510255.7,286046998.6,N
1539510275.5,286046998.4,N
1539510295.3,286046998.1,N
1539510315.2,286046998.1,N
1539510335.0,286046998.7,N
1539510335.9,286046998.7,N
1539510355.8,286046999.3,N
1539510375.6,286046998.2,N
1539510395.4,286046998.8,N
1539510415.3,286046999.1,N
1539510435.1,286046998.8,N
1539510455.8,286046998.6,N
1539510475.7,286047001.0,N
1539510495.5,286047001.1,N
1539510515.4,286046999.0,N
1539510535.2,286046998.4,N
1539510555.0,286046999.5,N
1539510555.9,286046999.5,N
1539510575.8,286046999.6,N
1539510595.6,286046997.0,Y
1539510615.5,286047000.9,P
1539510635.3,286047000.7,N
1539510655.1,286047000.5,N
1539510675.9,286047000.9,N
1539510695.7,286047000.5,N
1539510715.5,286047000.3,N
1539510735.4,286047000.6,N
1539510755.2,286047000.9,N
1539510775.1,286046998.1,Y
1539510776.0,286046998.1,P
1539510795.8,286046998.9,N
1539510815.6,286047000.8,N
1539510835.5,286047000.9,N
1539510855.3,286047000.4,N
1539510875.2,286046999.8,N
1539510895.0,286047002.5,N
1539510895.9,286047002.5,N
1539510915.7,286047000.3,N
1539510935.6,286047000.9,N
1539510955.4,286046999.8,N
1539510975.3,286047000.1,N
1539510995.1,286047002.4,N
1539510996.0,286047002.4,N
1539511015.8,286047001.6,N
1539511035.7,286047001.7,N
1539511055.5,286047004.3,Y
1539511075.3,286047002.3,P
1539511095.2,286047002.3,P
1539511115.0,286047000.1,N
1539511115.9,286047000.1,N
1539511135.8,286046998.1,N
1539511155.6,286046998.2,N
1539511175.4,286047001.1,N
1539511195.3,286047000.0,N
